Regional Weather Roundup
Issued by NWS

Home | Current Version | Previous Version | Graphics & Text | Print | Product List | Glossary On
Versions: 1 2 3 4 5 6 7 8 9 10 11 12 13 14 15 16 17 18 19 20 21 22 23 24 25 26 27 28 29 30 31 32 33 34 35 36 37 38 39 40 41 42 43 44 45 46 47 48 49 50
000
ASUS43 KFSD 020710
RWRSD

WEATHER ROUNDUP FOR SOUTH DAKOTA
NATIONAL WEATHER SERVICE SIOUX FALLS SD
200 AM CDT TUE SEP 02 2014

NOTE: "FAIR" INDICATES FEW OR NO CLOUDS BELOW 12,000 FEET WITH NO
SIGNIFICANT WEATHER AND/OR OBSTRUCTIONS TO VISIBILITY.


SDZ001>005-009-010-012>017-020800-
NORTHWEST AND NORTH CENTRAL SOUTH DAKOTA

CITY           SKY/WX    TMP DP  RH WIND       PRES   REMARKS
BUFFALO          N/A     52  44  74 SW5       29.88S
FAITH            N/A     50  47  89 SW10      29.94S
MOBRIDGE       CLEAR     50  49  96 N3        29.88F
$$

SDZ012>016-024>037-041>051-057-063-072>074-020800-
SOUTHWEST AND SOUTH CENTRAL SOUTH DAKOTA

CITY           SKY/WX    TMP DP  RH WIND       PRES   REMARKS
RAPID CTY ARPT CLEAR     45  42  89 CALM      30.00S
PIERRE         CLEAR     56  52  86 W8        29.92S
CUSTER         CLEAR     47  35  63 NW9       30.09S
ELLSWORTH AFB  CLEAR     51  44  74 SW6       29.99F
PHILIP         CLEAR     52  48  86 W6        29.97S
PINE RIDGE     CLEAR     43  42  97 MISG      30.03F
WINNER         FAIR      55  51  86 SW8       29.97R
$$

SDZ004>011-016>023-039-040-020800-
NORTHEAST SOUTH DAKOTA

CITY           SKY/WX    TMP DP  RH WIND       PRES   REMARKS
ABERDEEN       PTCLDY    50  50 100 W5        29.88R
WATERTOWN      CLOUDY    54  52  93 W6        29.88S
SISSETON         N/A     58  55  90 W6        29.85R
$$

SDZ017-020-022-023-036>040-048>070-020800-
SOUTHEAST SOUTH DAKOTA

CITY           SKY/WX    TMP DP  RH WIND       PRES   REMARKS
SIOUX FALLS    CLOUDY    62  55  77 W7        29.89R
HURON          MOCLDY    56  54  93 SW5       29.89R
CHAMBERLAIN    CLEAR     56  54  93 SW8       29.94R
MITCHELL       CLOUDY    60  56  86 W7        29.92S
YANKTON        MOCLDY    57  54  88 W8        29.93S
$$

ABBREVIATIONS USED IN REMARKS
   TC - TEMPERATURE IN CELSIUS
  WCI - WIND CHILL INDEX
   HX - HEAT INDEX
  VSB - VISIBILITY



USA.gov is the U.S. government's official web portal to all federal, state and local government web resources and services.